sat.trackr.live / text

‹ back to catalog

STARLINK-4023

NORAD 53135 · 2022-083D

PAYLOAD ACTIVE UNKNOWN

§ Identity

Operator
Country
US
Launch date
2022-07-17
Launch site
AFETR
Launch vehicle
Mass (kg)
RCS (m²)

Purposes: comms

External: N2YO · Heavens-Above · Gunter

§ Orbital elements

Epoch: 2026-09-20T00:39:45.350208Z

Period
93.85 min
Inclination
53.1608°
Eccentricity
0.0001219
Mean motion
15.34361100 rev/d
Perigee alt
462.0 km
Apogee alt
463.7 km
Semi-major
6,841.0 km
B*
2.7955e-4
RAAN
5.5814°
Arg perigee
92.5731°
Mean anomaly
267.5411°
Rev number
23,176

§ Raw data

STARLINK-40231 53135U 22083D   26263.02760822  .00009069  00000+0  27955-3 0  99922 53135  53.1608   5.5814 0001219  92.5731 267.5411 15.34361100231764

JSON: /api/v1/satellites/53135 · /tle

For live sub-satellite position, see the globe view (requires WebGL).

§ Visibility from observer

Set your observer location to see the next 7 days of passes ≥ 10°. The values pass through the URL so the page stays shareable.

No JS? Fill the form by hand. The geolocation button needs JavaScript.